Home > Weather > Phuket > Past weeks

Flag for Thailand Past Weather in Phuket, Thailand — Yesterday and Last 2 Weeks

Now
90 °F

Passing clouds.


Feels Like: 100 °F
Forecast: 76 / 89 °F
Wind: 6 mph from Southeast

Location: Phuket Airport

Current Time: Jun 25, 2016 at 1:58:05 PM

Latest Report: Jun 25, 2016 at 1:30 PM


Visibility: N/A

Pressure: 29.80 "Hg

Humidity: 63%

Dew Point: 75 °F

Location of PhuketLocation

Past Weather in Phuket — Graph

°F

Phuket Temperature Yesterday

Maximum temperature yesterday: 90 °F (at 1:00 PM)
Minimum temperature yesterday: 77 °F (at 3:30 AM)
Average temperature yesterday: 83 °F

High & Low Weather Summary for the Past Weeks

 TemperatureHumidityPressure
High91 °F (Jun 23, 1:00 PM)94% (Jun 12, 6:30 AM)29.95 "Hg (Jun 12, 6:30 AM)
Low73 °F (Jun 19, 6:00 AM)52% (Jun 24, 3:00 PM)29.74 "Hg (Jun 16, 4:00 PM)
Average81 °F80%29.84 "Hg
* Reported Jun 10 12:00 PM — Jun 25 12:00 PM, Phuket, Weather by CustomWeather, © 2016

Note: Actual official high and low records may vary slightly from our data, if they occured in-between our weather recording intervals... More about our weather records

Advertising

Phuket Weather History for the Previous 24 Hours

Scroll right to see more
 ConditionsComfort  
Time TempWeatherWind HumidityBarometerVisibility
12:00 PM
Sat, Jun 25
88 °FPassing clouds.8 mph66%29.83 "HgN/A
11:30 AM88 °FPassing clouds.8 mph75%29.83 "HgN/A
11:00 AM90 °FPassing clouds.5 mph67%29.83 "HgN/A
10:30 AM90 °FPassing clouds.5 mph63%29.83 "HgN/A
10:00 AM88 °FPassing clouds.7 mph70%29.86 "HgN/A
9:30 AM88 °FPassing clouds.8 mph70%29.86 "HgN/A
9:00 AM86 °FPassing clouds.8 mph79%29.86 "HgN/A
8:30 AM84 °FPassing clouds.6 mph84%29.86 "Hg6 mi
8:00 AM81 °FPassing clouds.5 mph89%29.86 "Hg6 mi
7:30 AM79 °FPassing clouds.3 mph94%29.83 "Hg6 mi
7:00 AM79 °FPassing clouds.No wind89%29.83 "Hg6 mi
6:30 AM77 °FPassing clouds.No wind94%29.83 "Hg6 mi
6:00 AM77 °FPassing clouds.No wind94%29.80 "Hg5 mi
5:30 AM79 °FPassing clouds.No wind89%29.80 "Hg5 mi
5:00 AM79 °FPassing clouds.No wind89%29.80 "Hg5 mi
4:30 AM79 °FPassing clouds.No wind89%29.80 "Hg5 mi
4:00 AM79 °FPassing clouds.No wind89%29.80 "Hg5 mi
3:30 AM79 °FPassing clouds.No wind89%29.80 "Hg5 mi
3:00 AM79 °FPassing clouds.No wind94%29.80 "Hg5 mi
2:30 AM79 °FPassing clouds.No wind94%29.83 "Hg5 mi
2:00 AM79 °FPassing clouds.No wind89%29.83 "Hg5 mi
1:30 AM79 °FPassing clouds.No wind89%29.83 "Hg5 mi
1:00 AM79 °FPassing clouds.No wind94%29.86 "Hg6 mi
12:30 AM79 °FPassing clouds.No wind89%29.86 "Hg6 mi
12:00 AM81 °FPassing clouds.No wind84%29.86 "Hg6 mi
11:30 PM
Fri, Jun 24
81 °FPassing clouds.No wind89%29.86 "Hg6 mi
11:00 PM81 °FPassing clouds.No wind89%29.86 "Hg6 mi
10:30 PM81 °FPassing clouds.No wind89%29.86 "Hg6 mi
10:00 PM81 °FPassing clouds.No wind84%29.83 "Hg6 mi
9:30 PM81 °FPassing clouds.No wind89%29.83 "Hg6 mi
9:00 PM81 °FPassing clouds.6 mph89%29.83 "Hg6 mi
8:30 PM81 °FPassing clouds.3 mph84%29.80 "Hg6 mi
8:00 PM81 °FPassing clouds.2 mph84%29.80 "Hg6 mi
7:30 PM82 °FPassing clouds.1 mph79%29.80 "Hg6 mi
7:00 PM84 °FPassing clouds.No wind74%29.77 "Hg6 mi
6:30 PM84 °FPassing clouds.3 mph74%29.77 "Hg6 mi
6:00 PM86 °FPassing clouds.2 mph70%29.77 "Hg6 mi
5:30 PM88 °FPassing clouds.3 mph59%29.77 "Hg6 mi
5:00 PM88 °FPassing clouds.5 mph59%29.74 "Hg6 mi
4:30 PM90 °FPassing clouds.5 mph55%29.74 "Hg6 mi
4:00 PM90 °FPassing clouds.2 mph63%29.74 "Hg6 mi
3:30 PM88 °FPartly sunny.6 mph55%29.77 "Hg6 mi
3:00 PM90 °FPartly sunny.5 mph52%29.77 "Hg6 mi
2:30 PM90 °FPartly sunny.5 mph67%29.77 "Hg6 mi
2:00 PM88 °FPartly sunny.6 mph70%29.80 "Hg6 mi
1:30 PM90 °FPartly sunny.2 mph59%29.80 "Hg6 mi
1:00 PM90 °FPartly sunny.6 mph63%29.77 "Hg6 mi
Weather by CustomWeather, © 2016

See weather overviewHow to use our weather pages